User: anonymous   Login
Location: Celina Division
(33.3022°N, 96.7580°W)
Time: 23:21:20
(UTC+00:00)
Language:

STARS - Orbit

View from above orbital plane
View from above orbital plane
View from above satellite
View from above satellite

Ground track
Ground track

The orbit data is extracted from the following two-line orbital elements,

1 33498U 09002G   24105.70466726  .00005666  00000-0  67551-3 0  9998
2 33498  98.1213  18.7076 0008370 252.0189 108.0113 14.84679190820673
Epoch (UTC): 14 April 2024 16:54:43
Eccentricity: 0.0008370
inclination: 98.1213°
perigee height: 609 km
apogee height: 620 km
right ascension of ascending node: 18.7076°
argument of perigee: 252.0189°
revolutions per day: 14.84679190
mean anomaly at epoch: 108.0113°
orbit number at epoch: 82067

The dashed part of the orbit path shows where the satellite is in the earth's shadow,  

DLR